Location: Newark
(48.6461°N, 4.3644°W)
Time: 08:13:37
(UTC+00:00)

Altair - Pass Details

Date: 24 January 2021
Orbit: 1501 x 1682 km, 47.2° (Epoch: 24 February)

Event Time Altitude Azimuth Distance (km) Brightness Sun altitude
Exits shadow 05:03:06 17° 206° (SSW) 3,364 9.0 -28.4°
Maximum altitude 05:10:28 45° 143° (SE) 2,166 8.4 -27.2°
Drops below altitude 10° 05:19:53 10° 76° (ENE) 3,949 10.6 -25.7°
Sets 05:23:13 0° 70° (ENE) 4,936 11.3 -25.1°
